Regional Weather Roundup
Issued by NWS

Home | Current Version | Previous Version | Text Only | Print | Product List | Glossary Off
Versions: 1 2 3 4 5 6 7 8 9 10 11 12 13 14 15 16 17 18 19 20 21 22 23 24 25 26 27 28 29 30 31 32 33 34 35 36 37 38 39 40 41 42 43 44 45 46 47 48 49 50

000
ASUS43 KMPX 011901
RWRMN
WEATHER ROUNDUP FOR MINNESOTA
NATIONAL WEATHER SERVICE TWIN CITIES/CHANHASSEN MN
200 PM CDT WED APR 01 2015


NOTE: "FAIR" INDICATES FEW OR NO CLOUDS BELOW 12,000 FEET WITH NO
SIGNIFICANT WEATHER AND/OR OBSTRUCTIONS TO VISIBILITY. N/A MEANS
CURRENT SKY AND/OR WEATHER CONDITIONS ARE NOT AVAILABLE.

MNZ060>063-068>070-012000-
   Twin Cities Metro

CITY           SKY/WX    TMP DP  RH WIND       PRES   REMARKS
TWIN CITIES    PTSUNNY   78  34  20 S33G43    29.57F
ST PAUL        PTSUNNY   77  35  21 S28G43    29.58F
CRYSTAL        CLOUDY    77  33  20 S23G38    29.53F
LAKEVILLE      MOSUNNY   75  41  29 S24       29.60F
EDEN PRAIRIE   CLOUDY    79  34  19 S25G46    29.54F
SOUTH ST PAUL  PTSUNNY   77  37  23 S20G36    29.59F
LAKE ELMO      FAIR      75  41  29 S24G38    29.61F
$$
MNZ001>005-007-008-013>017-022>024-027-028-012000-
   Northwest Minnesota

CITY           SKY/WX    TMP DP  RH WIND       PRES   REMARKS
BEMIDJI        CLOUDY    63  37  39 S15G21    29.40F
HALLOCK        PTSUNNY   64  39  39 SW10G16   29.32R
ROSEAU         PTSUNNY   63  39  42 SE13      29.35F
WARROAD        PTSUNNY   59  41  51 S12       29.38F
THIEF RVR FALL CLOUDY    64  39  39 S16       29.33F
CROOKSTON      PTSUNNY   70  37  30 SW16      29.33F
FOSSTON        CLOUDY    64  37  36 S21       29.35F
DETROIT LAKES  CLOUDY    68  39  34 S17       29.39F
MOORHEAD       CLOUDY    70  25  18 SW22      29.36R
PARK RAPIDS    CLOUDY    71  40  32 S25G33    29.40F
MAHNOMEN       FAIR      66  39  36 S20G29    29.38S
$$
MNZ006-009>011-018-025>026-012000-
   North Central Minnesota

CITY           SKY/WX    TMP DP  RH WIND       PRES   REMARKS
BAUDETTE       PTSUNNY   61  37  41 S16       29.39F
FLAG ISLAND    MOSUNNY   50  32  50 SE7       29.39F
INTL FALLS     PTSUNNY   61  34  36 S9G24     29.45F
WASKISH        CLOUDY    61  37  41 S3G21     29.41F
BIG FORK       CLOUDY    61  36  39 S15G25    29.46F
LONGVILLE      CLOUDY    63  36  36 S15       29.44F
GRAND RAPIDS   CLOUDY    61  36  39 SE15G25   29.50F
CRANE LAKE     PTSUNNY   59  32  36 SE9G16    29.53F
ORR            PTSUNNY   59  30  33 SE17G25   29.48F
COOK           PTSUNNY   54  34  47 S15G24    29.53F
WALKER         FAIR      61  35  38 SE7       29.42F
$$
MNZ012-019>021-037-012000-
   Northeast Minnesota

CITY           SKY/WX    TMP DP  RH WIND       PRES   REMARKS
DULUTH         CLOUDY    44  32  62 SE10      29.61F
ELY            PTSUNNY   52  30  43 SE14G24   29.58F
EVELETH        PTSUNNY   52  32  46 SE13G18   29.56F
DULUTH HARBOR  CLOUDY    36  34  93 NE18G24   29.65F THUNDER
TWO HARBORS    PTSUNNY   45  36  70 NE12G17   29.60F THUNDER
SILVER BAY     PTSUNNY   39  32  75 NE14G22   29.63F THUNDER
GRAND MARAIS     N/A     34  30  85 E18G30    29.73F WCI  23
G MARAIS ARPRT PTSUNNY   34  28  80 E12G21    29.68F WCI  25
$$
MNZ029>031-032-039>041-046>048-054>057-064-012000-
   West Central Minnesota

CITY           SKY/WX    TMP DP  RH WIND       PRES   REMARKS
FERGUS FALLS   CLOUDY    70  36  28 SW25G31   29.42S
WHEATON        CLOUDY    64  39  39 W5        29.43F
MORRIS         CLOUDY    72  45  37 SW15      29.45R
ALEXANDRIA     CLOUDY    69  42  37 SW16      29.47S
ELBOW LAKE     FAIR      65  45  48 S14       29.43S THUNDER
WADENA         CLOUDY    66  41  39 S17G23    29.43S
GLENWOOD       CLOUDY    72  43  35 SW15      29.48R
APPLETON       CLOUDY    75  39  27 SW20G32   29.43S
BENSON         CLOUDY    73  39  29 W26G36    29.45S
ORTONVILLE     CLOUDY    72  41  33 SW20G33   29.43R
MADISON        CLOUDY    73  39  29 SW25G35   29.43S
WILLMAR        FAIR      75  39  27 S10G20    29.47F
$$
MNZ033>034-036-042>043-049>051-058-059-012000-
   Central Minnesota

CITY           SKY/WX    TMP DP  RH WIND       PRES   REMARKS
ST CLOUD       CLOUDY    72  34  24 S24G36    29.47F
SAUK CENTRE    CLOUDY    73  43  34 S28G37    29.45F
PAYNESVILLE    CLOUDY    70  39  32 SE14G26   29.48F
AITKIN         CLOUDY    63  36  36 S14G20    29.49F
PINE RIVER     CLOUDY    66  43  42 S13G26    29.48F
BRAINERD       CLOUDY    67  37  33 S15       29.48F
STAPLES        CLOUDY    66  36  32 S20G26    29.45F
LONG PRAIRIE   CLOUDY    68  41  37 S14G20    29.48F
LITTLE FALLS   CLOUDY    68  32  26 S7        29.50S
LITCHFIELD     CLOUDY    73  37  27 CALM      29.49F
MAPLE LAKE     CLOUDY    73  38  28 S14G29    29.52F
$$
MNZ037-044-045-052-053-012000-
   East Central Minnesota

CITY           SKY/WX    TMP DP  RH WIND       PRES   REMARKS
PRINCETON      CLOUDY    73  36  25 S14G21    29.52F THUNDER
MORA           CLOUDY    64  37  36 S7        29.56F
CAMBRIDGE      TSTM      66  48  52 SE7       29.53F
RUSH CITY      TSTM      58  45  63 SE16      29.56F
MOOSE LAKE     CLOUDY    61  34  36 SE10G16   29.54F THUNDER
HINCKLEY       LGT RAIN  63  37  39 S6        29.57F
CLOQUET        CLOUDY    45  32  61 E10       29.58F THUNDER
MCGREGOR       CLOUDY    59  36  41 S13       29.52F
$$
MNZ071>073-080-081-089-090-097-098-012000-
   Southwest Minnesota

CITY           SKY/WX    TMP DP  RH WIND       PRES   REMARKS
MONTEVIDEO     CLOUDY    75  43  31 W22G38    29.45S
GRANITE FALLS  CLOUDY    77  44  30 S38G46    29.46F HAZE
CANBY          CLOUDY    78  41  26 SW25G39   29.45F
MARSHALL       CLOUDY    81  45  28 SW38G49   29.48F
REDWOOD FALLS  CLOUDY    81  43  26 S39G53    29.47F
OLIVIA         CLOUDY    73  46  38 S29G45    29.46F
PIPESTONE      PTSUNNY   81  41  24 SW31G41   29.52F
WINDOM         MOSUNNY   81  39  22 S25G41    29.56F
WORTHINGTON    MOSUNNY   79  43  27 SW26G38   29.58F
JACKSON        SUNNY     81  36  19 S35G41    29.59F
TRACY          PTSUNNY   80  44  28 S30G41    29.51F
SLAYTON        PTSUNNY   77  35  21 S33G41    29.55F
$$
MNZ065>067-074>077-082>085-091>093-012000-
   South Central Minnesota

CITY           SKY/WX    TMP DP  RH WIND       PRES   REMARKS
MANKATO        PTSUNNY   81  34  18 S29G45    29.59F
NEW ULM        CLOUDY    79  37  22 S32G41    29.51F HAZE
FAIRMONT       PTSUNNY   81  34  18 S35G45    29.58F
GLENCOE        CLOUDY    75  42  30 S17G29    29.55F
FARIBAULT      MOSUNNY   79  37  22 S23G33    29.63F
OWATONNA       SUNNY     77  36  22 S25G33    29.63F
WASECA         MOSUNNY   77  36  22 S38G46    29.65F
ALBERT LEA     SUNNY     79  34  19 S26G33    29.65F
$$
MNZ078>079-086>088-094>096-012000-
   Southeast Minnesota

CITY           SKY/WX    TMP DP  RH WIND       PRES   REMARKS
ROCHESTER      SUNNY     73  42  32 S33G43    29.69F
RED WING       SUNNY     75  36  23 SW28G36   29.64F
STANTON        MOSUNNY   76  40  27 S24G36    29.61F
DODGE CENTER   SUNNY     73  43  33 S26G38    29.68F
WINONA         MOSUNNY   77  34  20 S14G31    29.71F
AUSTIN         SUNNY     75  37  25 S25G36    29.69F
PRESTON        SUNNY     74  36  25 S28G38    29.73F
$$
ABBREVIATIONS USED IN REMARKS
   TC - TEMPERATURES IN CELSIUS
  WCI - WIND CHILL INDEX
   HX - HEAT INDEX
  VSB - VISIBILITY
$$


USA.gov is the U.S. government's official web portal to all federal, state and local government web resources and services.